Year,Month,Day,Hour,Minute,Value (Times are PST for temperature in C)
2008,06,09,00,00,6.30
2008,06,09,00,01,6.30
2008,06,09,00,02,6.30
2008,06,09,00,03,6.30
2008,06,09,00,04,6.20
2008,06,09,00,05,6.20
2008,06,09,00,06,6.20
2008,06,09,00,07,6.20
2008,06,09,00,08,6.20
2008,06,09,00,09,6.20
2008,06,09,00,10,6.20
2008,06,09,00,11,6.20
2008,06,09,00,12,6.20
2008,06,09,00,13,6.20
2008,06,09,00,14,6.20
2008,06,09,00,15,6.20
2008,06,09,00,16,6.10
2008,06,09,00,17,6.10
2008,06,09,00,18,6.10
2008,06,09,00,19,6.10
2008,06,09,00,20,6.10
2008,06,09,00,21,6.10
2008,06,09,00,22,6.10
2008,06,09,00,23,6.10
2008,06,09,00,24,6.10
2008,06,09,00,25,6.10
2008,06,09,00,26,6.10
2008,06,09,00,27,6.10
2008,06,09,00,28,6.10
2008,06,09,00,29,6.10
2008,06,09,00,30,6.10
2008,06,09,00,31,6.00
2008,06,09,00,32,6.00
2008,06,09,00,33,6.00
2008,06,09,00,34,6.00
2008,06,09,00,35,6.00
2008,06,09,00,36,6.00
2008,06,09,00,37,5.90
2008,06,09,00,38,5.90
2008,06,09,00,39,5.90
2008,06,09,00,40,5.90
2008,06,09,00,41,5.90
2008,06,09,00,42,5.90
2008,06,09,00,43,5.90
2008,06,09,00,44,5.90
2008,06,09,00,45,5.90
2008,06,09,00,46,5.90
2008,06,09,00,47,5.90
2008,06,09,00,48,5.90
2008,06,09,00,49,5.90
2008,06,09,00,50,5.90
2008,06,09,00,51,5.90
2008,06,09,00,52,5.80
2008,06,09,00,53,5.80
2008,06,09,00,54,5.80
2008,06,09,00,55,5.80
2008,06,09,00,56,5.80
2008,06,09,00,57,5.80
2008,06,09,00,58,5.80
2008,06,09,00,59,5.80
2008,06,09,01,00,5.80
2008,06,09,01,01,5.80
2008,06,09,01,02,5.80
2008,06,09,01,03,5.80
2008,06,09,01,04,5.80
2008,06,09,01,05,5.80
2008,06,09,01,06,5.80
2008,06,09,01,07,5.80
2008,06,09,01,08,5.80
2008,06,09,01,09,5.80
2008,06,09,01,10,5.80
2008,06,09,01,11,5.80
2008,06,09,01,12,5.80
2008,06,09,01,13,5.80
2008,06,09,01,14,5.80
2008,06,09,01,15,5.80
2008,06,09,01,16,5.80
2008,06,09,01,17,5.80
2008,06,09,01,18,5.80
2008,06,09,01,19,5.80
2008,06,09,01,20,5.80
2008,06,09,01,21,5.80
2008,06,09,01,22,5.80
2008,06,09,01,23,5.80
2008,06,09,01,24,5.80
2008,06,09,01,25,5.80
2008,06,09,01,26,5.80
2008,06,09,01,27,5.80
2008,06,09,01,28,5.80
2008,06,09,01,29,5.80
2008,06,09,01,30,5.80
2008,06,09,01,31,5.80
2008,06,09,01,32,5.80
2008,06,09,01,33,5.80
2008,06,09,01,34,5.80
2008,06,09,01,35,5.80
2008,06,09,01,36,5.80
2008,06,09,01,37,5.80
2008,06,09,01,38,5.80
2008,06,09,01,39,5.80
2008,06,09,01,40,5.80
2008,06,09,01,41,5.80
2008,06,09,01,42,5.80
2008,06,09,01,43,5.70
2008,06,09,01,44,5.70
2008,06,09,01,45,5.70
2008,06,09,01,46,5.70
2008,06,09,01,47,5.70
2008,06,09,01,48,5.70
2008,06,09,01,49,5.70
2008,06,09,01,50,5.70
2008,06,09,01,51,5.60
2008,06,09,01,52,5.60
2008,06,09,01,53,5.60
2008,06,09,01,54,5.60
2008,06,09,01,55,5.60
2008,06,09,01,56,5.60
2008,06,09,01,57,5.60
2008,06,09,01,58,5.60
2008,06,09,01,59,5.60
2008,06,09,02,00,5.60
2008,06,09,02,01,5.60
2008,06,09,02,02,5.60
2008,06,09,02,03,5.60
2008,06,09,02,04,5.60
2008,06,09,02,05,5.60
2008,06,09,02,06,5.60
2008,06,09,02,07,5.60
2008,06,09,02,08,5.60
2008,06,09,02,09,5.60
2008,06,09,02,10,5.60
2008,06,09,02,11,5.60
2008,06,09,02,12,5.60
2008,06,09,02,13,5.60
2008,06,09,02,14,5.60
2008,06,09,02,15,5.60
2008,06,09,02,16,5.60
2008,06,09,02,17,5.60
2008,06,09,02,18,5.60
2008,06,09,02,19,5.60
2008,06,09,02,20,5.60
2008,06,09,02,21,5.60
2008,06,09,02,22,5.60
2008,06,09,02,23,5.60
2008,06,09,02,24,5.70
2008,06,09,02,25,5.70
2008,06,09,02,26,5.70
2008,06,09,02,27,5.70
2008,06,09,02,28,5.70
2008,06,09,02,29,5.70
2008,06,09,02,30,5.70
2008,06,09,02,31,5.70
2008,06,09,02,32,5.70
2008,06,09,02,33,5.70
2008,06,09,02,34,5.70
2008,06,09,02,35,5.70
2008,06,09,02,36,5.70
2008,06,09,02,37,5.70
2008,06,09,02,38,5.70
2008,06,09,02,39,5.70
2008,06,09,02,40,5.80
2008,06,09,02,41,5.80
2008,06,09,02,42,5.80
2008,06,09,02,43,5.80
2008,06,09,02,44,5.80
2008,06,09,02,45,5.80
2008,06,09,02,46,5.80
2008,06,09,02,47,5.80
2008,06,09,02,48,5.80
2008,06,09,02,49,5.80
2008,06,09,02,50,5.80
2008,06,09,02,51,5.80
2008,06,09,02,52,5.80
2008,06,09,02,53,5.90
2008,06,09,02,54,5.90
2008,06,09,02,55,5.90
2008,06,09,02,56,5.90
2008,06,09,02,57,5.90
2008,06,09,02,58,5.90
2008,06,09,02,59,5.90
2008,06,09,03,00,6.00
2008,06,09,03,01,6.00
2008,06,09,03,02,6.00
2008,06,09,03,03,6.10
2008,06,09,03,04,6.10
2008,06,09,03,05,6.10
2008,06,09,03,06,6.10
2008,06,09,03,07,6.20
2008,06,09,03,08,6.20
2008,06,09,03,09,6.20
2008,06,09,03,10,6.20
2008,06,09,03,11,6.20
2008,06,09,03,12,6.20
2008,06,09,03,13,6.20
2008,06,09,03,14,6.20
2008,06,09,03,15,6.20
2008,06,09,03,16,6.20
2008,06,09,03,17,6.20
2008,06,09,03,18,6.20
2008,06,09,03,19,6.30
2008,06,09,03,20,6.30
2008,06,09,03,21,6.30
2008,06,09,03,22,6.30
2008,06,09,03,23,6.30
2008,06,09,03,24,6.30
2008,06,09,03,25,6.30
2008,06,09,03,26,6.30
2008,06,09,03,27,6.30
2008,06,09,03,28,6.30
2008,06,09,03,29,6.40
2008,06,09,03,30,6.40
2008,06,09,03,31,6.40
2008,06,09,03,32,6.40
2008,06,09,03,33,6.40
2008,06,09,03,34,6.40
2008,06,09,03,35,6.50
2008,06,09,03,36,6.50
2008,06,09,03,37,6.50
2008,06,09,03,38,6.50
2008,06,09,03,39,6.60
2008,06,09,03,40,6.60
2008,06,09,03,41,6.60
2008,06,09,03,42,6.60
2008,06,09,03,43,6.60
2008,06,09,03,44,6.60
2008,06,09,03,45,6.60
2008,06,09,03,46,6.60
2008,06,09,03,47,6.70
2008,06,09,03,48,6.70
2008,06,09,03,49,6.70
2008,06,09,03,50,6.70
2008,06,09,03,51,6.70
2008,06,09,03,52,6.70
2008,06,09,03,53,6.70
2008,06,09,03,54,6.70
2008,06,09,03,55,6.70
2008,06,09,03,56,6.70
2008,06,09,03,57,6.70
2008,06,09,03,58,6.70
2008,06,09,03,59,6.80
2008,06,09,04,00,6.80
2008,06,09,04,01,6.80
2008,06,09,04,02,6.80
2008,06,09,04,03,6.80
2008,06,09,04,04,6.80
2008,06,09,04,05,6.90
2008,06,09,04,06,6.90
2008,06,09,04,07,6.90
2008,06,09,04,08,6.90
2008,06,09,04,09,6.90
2008,06,09,04,10,6.90
2008,06,09,04,11,6.90
2008,06,09,04,12,6.90
2008,06,09,04,13,6.90
2008,06,09,04,14,6.90
2008,06,09,04,15,6.90
2008,06,09,04,16,6.90
2008,06,09,04,17,6.90
2008,06,09,04,18,6.90
2008,06,09,04,19,7.00
2008,06,09,04,20,7.00
2008,06,09,04,21,7.00
2008,06,09,04,22,7.00
2008,06,09,04,23,7.00
2008,06,09,04,24,7.00
2008,06,09,04,25,7.00
2008,06,09,04,26,7.10
2008,06,09,04,27,7.10
2008,06,09,04,28,7.10
2008,06,09,04,29,7.10
2008,06,09,04,30,7.10
2008,06,09,04,31,7.10
2008,06,09,04,32,7.10
2008,06,09,04,33,7.10
2008,06,09,04,34,7.10
2008,06,09,04,35,7.10
2008,06,09,04,36,7.10
2008,06,09,04,37,7.10
2008,06,09,04,38,7.20
2008,06,09,04,39,7.20
2008,06,09,04,40,7.20
2008,06,09,04,41,7.20
2008,06,09,04,42,7.20
2008,06,09,04,43,7.20
2008,06,09,04,44,7.20
2008,06,09,04,45,7.20
2008,06,09,04,46,7.20
2008,06,09,04,47,7.20
2008,06,09,04,48,7.20
2008,06,09,04,49,7.20
2008,06,09,04,50,7.20
2008,06,09,04,51,7.20
2008,06,09,04,52,7.20
2008,06,09,04,53,7.20
2008,06,09,04,54,7.20
2008,06,09,04,55,7.20
2008,06,09,04,56,7.20
2008,06,09,04,57,7.20
2008,06,09,04,58,7.20
2008,06,09,04,59,7.20
2008,06,09,05,00,7.20
2008,06,09,05,01,7.20
2008,06,09,05,02,7.20
2008,06,09,05,03,7.20
2008,06,09,05,04,7.20
2008,06,09,05,05,7.20
2008,06,09,05,06,7.20
2008,06,09,05,07,7.20
2008,06,09,05,08,7.20
2008,06,09,05,09,7.20
2008,06,09,05,10,7.20
2008,06,09,05,11,7.20
2008,06,09,05,12,7.20
2008,06,09,05,13,7.20
2008,06,09,05,14,7.20
2008,06,09,05,15,7.20
2008,06,09,05,16,7.30
2008,06,09,05,17,7.30
2008,06,09,05,18,7.30
2008,06,09,05,19,7.30
2008,06,09,05,20,7.30
2008,06,09,05,21,7.30
2008,06,09,05,22,7.30
2008,06,09,05,23,7.30
2008,06,09,05,24,7.30
2008,06,09,05,25,7.30
2008,06,09,05,26,7.30
2008,06,09,05,27,7.30
2008,06,09,05,28,7.30
2008,06,09,05,29,7.30
2008,06,09,05,30,7.30
2008,06,09,05,31,7.30
2008,06,09,05,32,7.30
2008,06,09,05,33,7.30
2008,06,09,05,34,7.40
2008,06,09,05,35,7.40
2008,06,09,05,36,7.40
2008,06,09,05,37,7.40
2008,06,09,05,38,7.40
2008,06,09,05,39,7.40
2008,06,09,05,40,7.40
2008,06,09,05,41,7.50
2008,06,09,05,42,7.50
2008,06,09,05,43,7.50
2008,06,09,05,44,7.50
2008,06,09,05,45,7.60
2008,06,09,05,46,7.60
2008,06,09,05,47,7.60
2008,06,09,05,48,7.60
2008,06,09,05,49,7.60
2008,06,09,05,50,7.60
2008,06,09,05,51,7.60
2008,06,09,05,52,7.60
2008,06,09,05,53,7.60
2008,06,09,05,54,7.60
2008,06,09,05,55,7.60
2008,06,09,05,56,7.70
2008,06,09,05,57,7.70
2008,06,09,05,58,7.70
2008,06,09,05,59,7.70
2008,06,09,06,00,7.70
2008,06,09,06,01,7.70
2008,06,09,06,02,7.70
2008,06,09,06,03,7.70
2008,06,09,06,04,7.70
2008,06,09,06,05,7.80
2008,06,09,06,06,7.80
2008,06,09,06,07,7.80
2008,06,09,06,08,7.80
2008,06,09,06,09,7.80
2008,06,09,06,10,7.80
2008,06,09,06,11,7.80
2008,06,09,06,12,7.80
2008,06,09,06,13,7.80
2008,06,09,06,14,7.80
2008,06,09,06,15,7.80
2008,06,09,06,16,7.80
2008,06,09,06,17,7.80
2008,06,09,06,18,7.80
2008,06,09,06,19,7.80
2008,06,09,06,20,7.80
2008,06,09,06,21,7.80
2008,06,09,06,22,7.80
2008,06,09,06,23,7.80
2008,06,09,06,24,7.80
2008,06,09,06,25,7.80
2008,06,09,06,26,7.80
2008,06,09,06,27,7.80
2008,06,09,06,28,7.80
2008,06,09,06,29,7.90
2008,06,09,06,30,7.90
2008,06,09,06,31,7.90
2008,06,09,06,32,7.90
2008,06,09,06,33,7.90
2008,06,09,06,34,7.90
2008,06,09,06,35,7.90
2008,06,09,06,36,7.90
2008,06,09,06,37,7.90
2008,06,09,06,38,7.90
2008,06,09,06,39,7.90
2008,06,09,06,40,7.90
2008,06,09,06,41,7.90
2008,06,09,06,42,7.90
2008,06,09,06,43,7.90
2008,06,09,06,44,7.90
2008,06,09,06,45,7.90
2008,06,09,06,46,7.90
2008,06,09,06,47,8.00
2008,06,09,06,48,8.00
2008,06,09,06,49,8.00
2008,06,09,06,50,8.00
2008,06,09,06,51,8.00
2008,06,09,06,52,8.10
2008,06,09,06,53,8.10
2008,06,09,06,54,8.10
2008,06,09,06,55,8.10
2008,06,09,06,56,8.10
2008,06,09,06,57,8.10
2008,06,09,06,58,8.10
2008,06,09,06,59,8.10
2008,06,09,07,00,8.10
2008,06,09,07,01,8.20
2008,06,09,07,02,8.20
2008,06,09,07,03,8.20
2008,06,09,07,04,8.20
2008,06,09,07,05,8.20
2008,06,09,07,06,8.10
2008,06,09,07,07,8.10
2008,06,09,07,08,8.10
2008,06,09,07,09,8.10
2008,06,09,07,10,8.10
2008,06,09,07,11,8.10
2008,06,09,07,12,8.10
2008,06,09,07,13,8.20
2008,06,09,07,14,8.20
2008,06,09,07,15,8.20
2008,06,09,07,16,8.20
2008,06,09,07,17,8.20
2008,06,09,07,18,8.30
2008,06,09,07,19,8.30
2008,06,09,07,20,8.30
2008,06,09,07,21,8.30
2008,06,09,07,22,8.40
2008,06,09,07,23,8.40
2008,06,09,07,24,8.40
2008,06,09,07,25,8.50
2008,06,09,07,26,8.50
2008,06,09,07,27,8.60
2008,06,09,07,28,8.70
2008,06,09,07,29,8.80
2008,06,09,07,30,8.90
2008,06,09,07,31,9.00
2008,06,09,07,32,9.00
2008,06,09,07,33,9.10
2008,06,09,07,34,9.10
2008,06,09,07,35,9.10
2008,06,09,07,36,9.20
2008,06,09,07,37,9.20
2008,06,09,07,38,9.20
2008,06,09,07,39,9.20
2008,06,09,07,40,9.20
2008,06,09,07,41,9.20
2008,06,09,07,42,9.20
2008,06,09,07,43,9.20
2008,06,09,07,44,9.20
2008,06,09,07,45,9.30
2008,06,09,07,46,9.30
2008,06,09,07,47,9.30
2008,06,09,07,48,9.30
2008,06,09,07,49,9.30
2008,06,09,07,50,9.40
2008,06,09,07,51,9.40
2008,06,09,07,52,9.50
2008,06,09,07,53,9.50
2008,06,09,07,54,9.60
2008,06,09,07,55,9.60
2008,06,09,07,56,9.60
2008,06,09,07,57,9.70
2008,06,09,07,58,9.60
2008,06,09,07,59,9.60
2008,06,09,08,00,9.70
2008,06,09,08,01,9.70
2008,06,09,08,02,9.70
2008,06,09,08,03,9.70
2008,06,09,08,04,9.70
2008,06,09,08,05,9.70
2008,06,09,08,06,9.70
2008,06,09,08,07,9.70
2008,06,09,08,08,9.70
2008,06,09,08,09,9.80
2008,06,09,08,10,9.80
2008,06,09,08,11,9.80
2008,06,09,08,12,9.80
2008,06,09,08,13,9.80
2008,06,09,08,14,9.90
2008,06,09,08,15,9.90
2008,06,09,08,16,9.90
2008,06,09,08,17,9.90
2008,06,09,08,18,10.00
2008,06,09,08,19,10.00
2008,06,09,08,20,10.00
2008,06,09,08,21,10.00
2008,06,09,08,22,10.00
2008,06,09,08,23,10.00
2008,06,09,08,24,10.10
2008,06,09,08,25,10.10
2008,06,09,08,26,10.10
2008,06,09,08,27,10.00
2008,06,09,08,28,10.00
2008,06,09,08,29,10.00
2008,06,09,08,30,10.00
2008,06,09,08,31,9.90
2008,06,09,08,32,9.90
2008,06,09,08,33,9.90
2008,06,09,08,34,9.90
2008,06,09,08,35,9.90
2008,06,09,08,36,9.90
2008,06,09,08,37,9.90
2008,06,09,08,38,9.90
2008,06,09,08,39,9.90
2008,06,09,08,40,9.90
2008,06,09,08,41,10.00
2008,06,09,08,42,10.00
2008,06,09,08,43,10.00
2008,06,09,08,44,10.00
2008,06,09,08,45,10.10
2008,06,09,08,46,10.10
2008,06,09,08,47,10.10
2008,06,09,08,48,10.10
2008,06,09,08,49,10.10
2008,06,09,08,50,10.10
2008,06,09,08,51,10.10
2008,06,09,08,52,10.10
2008,06,09,08,53,10.10
2008,06,09,08,54,10.10
2008,06,09,08,55,10.10
2008,06,09,08,56,10.10
2008,06,09,08,57,10.10
2008,06,09,08,58,10.10
2008,06,09,08,59,10.20
2008,06,09,09,00,10.20
2008,06,09,09,01,10.20
2008,06,09,09,02,10.20
2008,06,09,09,03,10.20
2008,06,09,09,04,10.20
2008,06,09,09,05,10.20
2008,06,09,09,06,10.30
2008,06,09,09,07,10.30
2008,06,09,09,08,10.40
2008,06,09,09,09,10.30
2008,06,09,09,10,10.30
2008,06,09,09,11,10.30
2008,06,09,09,12,10.30
2008,06,09,09,13,10.30
2008,06,09,09,14,10.30
2008,06,09,09,15,10.30
2008,06,09,09,16,10.30
2008,06,09,09,17,10.30
2008,06,09,09,18,10.30
2008,06,09,09,19,10.30
2008,06,09,09,20,10.30
2008,06,09,09,21,10.30
2008,06,09,09,22,10.40
2008,06,09,09,23,10.40
2008,06,09,09,24,10.50
2008,06,09,09,25,10.50
2008,06,09,09,26,10.60
2008,06,09,09,27,10.60
2008,06,09,09,28,10.60
2008,06,09,09,29,10.60
2008,06,09,09,30,10.70
2008,06,09,09,31,10.70
2008,06,09,09,32,10.80
2008,06,09,09,33,10.80
2008,06,09,09,34,10.80
2008,06,09,09,35,10.90
2008,06,09,09,36,10.90
2008,06,09,09,37,10.90
2008,06,09,09,38,10.90
2008,06,09,09,39,11.00
2008,06,09,09,40,11.00
2008,06,09,09,41,11.00
2008,06,09,09,42,11.00
2008,06,09,09,43,10.90
2008,06,09,09,44,10.90
2008,06,09,09,45,10.90
2008,06,09,09,46,10.90
2008,06,09,09,47,10.90
2008,06,09,09,48,10.90
2008,06,09,09,49,10.90
2008,06,09,09,50,10.90
2008,06,09,09,51,10.90
2008,06,09,09,52,10.80
2008,06,09,09,53,10.80
2008,06,09,09,54,10.80
2008,06,09,09,55,10.80
2008,06,09,09,56,10.70
2008,06,09,09,57,10.70
2008,06,09,09,58,10.70
2008,06,09,09,59,10.80
2008,06,09,10,00,10.80
2008,06,09,10,01,10.70
2008,06,09,10,02,10.60
2008,06,09,10,03,10.50
2008,06,09,10,04,10.50
2008,06,09,10,05,10.40
2008,06,09,10,06,10.30
2008,06,09,10,07,10.30
2008,06,09,10,08,10.30
2008,06,09,10,09,10.20
2008,06,09,10,10,10.20
2008,06,09,10,11,10.10
2008,06,09,10,12,10.10
2008,06,09,10,13,10.10
2008,06,09,10,14,10.10
2008,06,09,10,15,10.10
2008,06,09,10,16,10.10
2008,06,09,10,17,10.10
2008,06,09,10,18,10.10
2008,06,09,10,19,10.10
2008,06,09,10,20,10.20
2008,06,09,10,21,10.20
2008,06,09,10,22,10.20
2008,06,09,10,23,10.20
2008,06,09,10,24,10.20
2008,06,09,10,25,10.30
2008,06,09,10,26,10.30
2008,06,09,10,27,10.30
2008,06,09,10,28,10.30
2008,06,09,10,29,10.30
2008,06,09,10,30,10.30
2008,06,09,10,31,10.30
2008,06,09,10,32,10.30
2008,06,09,10,33,10.30
2008,06,09,10,34,10.40
2008,06,09,10,35,10.50
2008,06,09,10,36,10.60
2008,06,09,10,37,10.60
2008,06,09,10,38,10.70
2008,06,09,10,39,10.60
2008,06,09,10,40,10.60
2008,06,09,10,41,10.60
2008,06,09,10,42,10.50
2008,06,09,10,43,10.50
2008,06,09,10,44,10.50
2008,06,09,10,45,10.50
2008,06,09,10,46,10.40
2008,06,09,10,47,10.40
2008,06,09,10,48,10.40
2008,06,09,10,49,10.50
2008,06,09,10,50,10.50
2008,06,09,10,51,10.40
2008,06,09,10,52,10.40
2008,06,09,10,53,10.40
2008,06,09,10,54,10.40
2008,06,09,10,55,10.40
2008,06,09,10,56,10.40
2008,06,09,10,57,10.40
2008,06,09,10,58,10.40
2008,06,09,10,59,10.40
2008,06,09,11,00,10.50
2008,06,09,11,01,10.60
2008,06,09,11,02,10.70
2008,06,09,11,03,10.70
2008,06,09,11,04,10.80
2008,06,09,11,05,10.80
2008,06,09,11,06,10.80
2008,06,09,11,07,10.90
2008,06,09,11,08,10.90
2008,06,09,11,09,10.90
2008,06,09,11,10,10.90
2008,06,09,11,11,10.90
2008,06,09,11,12,10.90
2008,06,09,11,13,10.90
2008,06,09,11,14,11.00
2008,06,09,11,15,11.00
2008,06,09,11,16,11.00
2008,06,09,11,17,11.10
2008,06,09,11,18,11.10
2008,06,09,11,19,11.10
2008,06,09,11,20,11.10
2008,06,09,11,21,11.00
2008,06,09,11,22,10.90
2008,06,09,11,23,10.80
2008,06,09,11,24,10.80
2008,06,09,11,25,10.80
2008,06,09,11,26,10.80
2008,06,09,11,27,10.80
2008,06,09,11,28,10.80
2008,06,09,11,29,10.80
2008,06,09,11,30,10.80
2008,06,09,11,31,10.70
2008,06,09,11,32,10.70
2008,06,09,11,33,10.60
2008,06,09,11,34,10.60
2008,06,09,11,35,10.50
2008,06,09,11,36,10.50
2008,06,09,11,37,10.40
2008,06,09,11,38,10.30
2008,06,09,11,39,10.30
2008,06,09,11,40,10.20
2008,06,09,11,41,10.20
2008,06,09,11,42,10.20
2008,06,09,11,43,10.20
2008,06,09,11,44,10.10
2008,06,09,11,45,10.10
2008,06,09,11,46,10.10
2008,06,09,11,47,10.10
2008,06,09,11,48,10.00
2008,06,09,11,49,10.00
2008,06,09,11,50,10.00
2008,06,09,11,51,9.90
2008,06,09,11,52,9.90
2008,06,09,11,53,9.90
2008,06,09,11,54,9.90
2008,06,09,11,55,9.80
2008,06,09,11,56,9.70
2008,06,09,11,57,9.70
2008,06,09,11,58,9.60
2008,06,09,11,59,9.50
2008,06,09,12,00,9.50
2008,06,09,12,01,9.50
2008,06,09,12,02,9.40
2008,06,09,12,03,9.40
2008,06,09,12,04,9.30
2008,06,09,12,05,9.20
2008,06,09,12,06,9.20
2008,06,09,12,07,9.20
2008,06,09,12,08,9.10
2008,06,09,12,09,9.10
2008,06,09,12,10,9.00
2008,06,09,12,11,9.00
2008,06,09,12,12,9.00
2008,06,09,12,13,9.00
2008,06,09,12,14,9.00
2008,06,09,12,15,9.00
2008,06,09,12,16,9.10
2008,06,09,12,17,9.10
2008,06,09,12,18,9.10
2008,06,09,12,19,9.10
2008,06,09,12,20,9.20
2008,06,09,12,21,9.20
2008,06,09,12,22,9.20
2008,06,09,12,23,9.20
2008,06,09,12,24,9.30
2008,06,09,12,25,9.30
2008,06,09,12,26,9.30
2008,06,09,12,27,9.30
2008,06,09,12,28,9.30
2008,06,09,12,29,9.40
2008,06,09,12,30,9.40
2008,06,09,12,31,9.40
2008,06,09,12,32,9.50
2008,06,09,12,33,9.60
2008,06,09,12,34,9.60
2008,06,09,12,35,9.60
2008,06,09,12,36,9.60
2008,06,09,12,37,9.60
2008,06,09,12,38,9.70
2008,06,09,12,39,9.70
2008,06,09,12,40,9.70
2008,06,09,12,41,9.80
2008,06,09,12,42,9.80
2008,06,09,12,43,9.80
2008,06,09,12,44,9.90
2008,06,09,12,45,10.00
2008,06,09,12,46,10.00
2008,06,09,12,47,10.00
2008,06,09,12,48,9.90
2008,06,09,12,49,9.90
2008,06,09,12,50,9.90
2008,06,09,12,51,9.90
2008,06,09,12,52,9.90
2008,06,09,12,53,9.80
2008,06,09,12,54,9.80
2008,06,09,12,55,9.80
2008,06,09,12,56,9.80
2008,06,09,12,57,9.80
2008,06,09,12,58,9.70
2008,06,09,12,59,9.70
2008,06,09,13,00,9.70
2008,06,09,13,01,9.70
2008,06,09,13,02,9.70
2008,06,09,13,03,9.70
2008,06,09,13,04,9.70
2008,06,09,13,05,9.70
2008,06,09,13,06,9.70
2008,06,09,13,07,9.70
2008,06,09,13,08,9.70
2008,06,09,13,09,9.60
2008,06,09,13,10,9.60
2008,06,09,13,11,9.50
2008,06,09,13,12,9.40
2008,06,09,13,13,9.40
2008,06,09,13,14,9.40
2008,06,09,13,15,9.30
2008,06,09,13,16,9.30
2008,06,09,13,17,9.30
2008,06,09,13,18,9.20
2008,06,09,13,19,9.20
2008,06,09,13,20,9.20
2008,06,09,13,21,9.20
2008,06,09,13,22,9.20
2008,06,09,13,23,9.20
2008,06,09,13,24,9.20
2008,06,09,13,25,9.20
2008,06,09,13,26,9.20
2008,06,09,13,27,9.20
2008,06,09,13,28,9.20
2008,06,09,13,29,9.20
2008,06,09,13,30,9.20
2008,06,09,13,31,9.20
2008,06,09,13,32,9.10
2008,06,09,13,33,9.10
2008,06,09,13,34,9.10
2008,06,09,13,35,9.10
2008,06,09,13,36,9.10
2008,06,09,13,37,9.00
2008,06,09,13,38,9.00
2008,06,09,13,39,9.00
2008,06,09,13,40,9.00
2008,06,09,13,41,9.00
2008,06,09,13,42,9.00
2008,06,09,13,43,9.00
2008,06,09,13,44,9.00
2008,06,09,13,45,9.10
2008,06,09,13,46,9.10
2008,06,09,13,47,9.10
2008,06,09,13,48,9.10
2008,06,09,13,49,9.10
2008,06,09,13,50,9.10
2008,06,09,13,51,9.10
2008,06,09,13,52,9.10
2008,06,09,13,53,9.10
2008,06,09,13,54,9.10
2008,06,09,13,55,9.10
2008,06,09,13,56,9.10
2008,06,09,13,57,9.10
2008,06,09,13,58,9.10
2008,06,09,13,59,9.20
2008,06,09,14,00,9.20
2008,06,09,14,01,9.20
2008,06,09,14,02,9.20
2008,06,09,14,03,9.10
2008,06,09,14,04,9.10
2008,06,09,14,05,9.10
2008,06,09,14,06,9.10
2008,06,09,14,07,9.10
2008,06,09,14,08,9.10
2008,06,09,14,09,9.00
2008,06,09,14,10,9.00
2008,06,09,14,11,9.00
2008,06,09,14,12,9.10
2008,06,09,14,13,9.10
2008,06,09,14,14,9.10
2008,06,09,14,15,9.20
2008,06,09,14,16,9.20
2008,06,09,14,17,9.20
2008,06,09,14,18,9.20
2008,06,09,14,19,9.20
2008,06,09,14,20,9.20
2008,06,09,14,21,9.20
2008,06,09,14,22,9.30
2008,06,09,14,23,9.30
2008,06,09,14,24,9.30
2008,06,09,14,25,9.30
2008,06,09,14,26,9.30
2008,06,09,14,27,9.30
2008,06,09,14,28,9.30
2008,06,09,14,29,9.30
2008,06,09,14,30,9.30
2008,06,09,14,31,9.30
2008,06,09,14,32,9.30
2008,06,09,14,33,9.30
2008,06,09,14,34,9.30
2008,06,09,14,35,9.40
2008,06,09,14,36,9.50
2008,06,09,14,37,9.50
2008,06,09,14,38,9.60
2008,06,09,14,39,9.60
2008,06,09,14,40,9.60
2008,06,09,14,41,9.60
2008,06,09,14,42,9.60
2008,06,09,14,43,9.60
2008,06,09,14,44,9.60
2008,06,09,14,45,9.70
2008,06,09,14,46,9.70
2008,06,09,14,47,9.70
2008,06,09,14,48,9.70
2008,06,09,14,49,9.70
2008,06,09,14,50,9.60
2008,06,09,14,51,9.60
2008,06,09,14,52,9.60
2008,06,09,14,53,9.60
2008,06,09,14,54,9.60
2008,06,09,14,55,9.60
2008,06,09,14,56,9.60
2008,06,09,14,57,9.50
2008,06,09,14,58,9.50
2008,06,09,14,59,9.50
2008,06,09,15,00,9.50
2008,06,09,15,01,9.60
2008,06,09,15,02,9.60
2008,06,09,15,03,9.60
2008,06,09,15,04,9.50
2008,06,09,15,05,9.50
2008,06,09,15,06,9.50
2008,06,09,15,07,9.40
2008,06,09,15,08,9.40
2008,06,09,15,09,9.40
2008,06,09,15,10,9.40
2008,06,09,15,11,9.40
2008,06,09,15,12,9.40
2008,06,09,15,13,9.40
2008,06,09,15,14,9.40
2008,06,09,15,15,9.40
2008,06,09,15,16,9.40
2008,06,09,15,17,9.40
2008,06,09,15,18,9.40
2008,06,09,15,19,9.40
2008,06,09,15,20,9.40
2008,06,09,15,21,9.40
2008,06,09,15,22,9.40
2008,06,09,15,23,9.40
2008,06,09,15,24,9.30
2008,06,09,15,25,9.30
2008,06,09,15,26,9.30
2008,06,09,15,27,9.30
2008,06,09,15,28,9.30
2008,06,09,15,29,9.30
2008,06,09,15,30,9.30
2008,06,09,15,31,9.30
2008,06,09,15,32,9.30
2008,06,09,15,33,9.30
2008,06,09,15,34,9.30
2008,06,09,15,35,9.30
2008,06,09,15,36,9.30
2008,06,09,15,37,9.30
2008,06,09,15,38,9.30
2008,06,09,15,39,9.30
2008,06,09,15,40,9.30
2008,06,09,15,41,9.30
2008,06,09,15,42,9.30
2008,06,09,15,43,9.30
2008,06,09,15,44,9.30
2008,06,09,15,45,9.30
2008,06,09,15,46,9.30
2008,06,09,15,47,9.30
2008,06,09,15,48,9.30
2008,06,09,15,49,9.30
2008,06,09,15,50,9.30
2008,06,09,15,51,9.30
2008,06,09,15,52,9.30
2008,06,09,15,53,9.30
2008,06,09,15,54,9.30
2008,06,09,15,55,9.30
2008,06,09,15,56,9.20
2008,06,09,15,57,9.20
2008,06,09,15,58,9.20
2008,06,09,15,59,9.20
2008,06,09,16,00,9.20
2008,06,09,16,01,9.20
2008,06,09,16,02,9.30
2008,06,09,16,03,9.30
2008,06,09,16,04,9.30
2008,06,09,16,05,9.30
2008,06,09,16,06,9.30
2008,06,09,16,07,9.30
2008,06,09,16,08,9.30
2008,06,09,16,09,9.30
2008,06,09,16,10,9.40
2008,06,09,16,11,9.40
2008,06,09,16,12,9.40
2008,06,09,16,13,9.40
2008,06,09,16,14,9.40
2008,06,09,16,15,9.40
2008,06,09,16,16,9.40
2008,06,09,16,17,9.40
2008,06,09,16,18,9.40
2008,06,09,16,19,9.30
2008,06,09,16,20,9.30
2008,06,09,16,21,9.30
2008,06,09,16,22,9.30
2008,06,09,16,23,9.30
2008,06,09,16,24,9.30
2008,06,09,16,25,9.30
2008,06,09,16,26,9.30
2008,06,09,16,27,9.30
2008,06,09,16,28,9.30
2008,06,09,16,29,9.40
2008,06,09,16,30,9.40
2008,06,09,16,31,9.40
2008,06,09,16,32,9.40
2008,06,09,16,33,9.40
2008,06,09,16,34,9.40
2008,06,09,16,35,9.40
2008,06,09,16,36,9.40
2008,06,09,16,37,9.40
2008,06,09,16,38,9.50
2008,06,09,16,39,9.50
2008,06,09,16,40,9.50
2008,06,09,16,41,9.50
2008,06,09,16,42,9.50
2008,06,09,16,43,9.50
2008,06,09,16,44,9.40
2008,06,09,16,45,9.40
2008,06,09,16,46,9.40
2008,06,09,16,47,9.40
2008,06,09,16,48,9.50
2008,06,09,16,49,9.50
2008,06,09,16,50,9.50
2008,06,09,16,51,9.50
2008,06,09,16,52,9.60
2008,06,09,16,53,9.60
2008,06,09,16,54,9.60
2008,06,09,16,55,9.60
2008,06,09,16,56,9.70
2008,06,09,16,57,9.70
2008,06,09,16,58,9.80
2008,06,09,16,59,9.80
2008,06,09,17,00,9.80
2008,06,09,17,01,9.80
2008,06,09,17,02,9.80
2008,06,09,17,03,9.80
2008,06,09,17,04,9.80
2008,06,09,17,05,9.80
2008,06,09,17,06,9.80
2008,06,09,17,07,9.80
2008,06,09,17,08,9.80
2008,06,09,17,09,9.80
2008,06,09,17,10,9.90
2008,06,09,17,11,9.90
2008,06,09,17,12,9.90
2008,06,09,17,13,9.90
2008,06,09,17,14,9.90
2008,06,09,17,15,9.90
2008,06,09,17,16,9.90
2008,06,09,17,17,9.90
2008,06,09,17,18,9.90
2008,06,09,17,19,10.00
2008,06,09,17,20,10.10
2008,06,09,17,21,10.10
2008,06,09,17,22,10.10
2008,06,09,17,23,10.10
2008,06,09,17,24,10.20
2008,06,09,17,25,10.20
2008,06,09,17,26,10.20
2008,06,09,17,27,10.10
2008,06,09,17,28,10.00
2008,06,09,17,29,10.00
2008,06,09,17,30,9.90
2008,06,09,17,31,9.90
2008,06,09,17,32,9.90
2008,06,09,17,33,9.90
2008,06,09,17,34,9.90
2008,06,09,17,35,9.90
2008,06,09,17,36,9.90
2008,06,09,17,37,9.90
2008,06,09,17,38,9.90
2008,06,09,17,39,9.90
2008,06,09,17,40,9.90
2008,06,09,17,41,9.90
2008,06,09,17,42,10.00
2008,06,09,17,43,10.00
2008,06,09,17,44,9.90
2008,06,09,17,45,10.00
2008,06,09,17,46,10.00
2008,06,09,17,47,10.10
2008,06,09,17,48,10.10
2008,06,09,17,49,10.10
2008,06,09,17,50,10.10
2008,06,09,17,51,10.20
2008,06,09,17,52,10.20
2008,06,09,17,53,10.20
2008,06,09,17,54,10.20
2008,06,09,17,55,10.30
2008,06,09,17,56,10.30